This demonstration page uses our WeatherBlox Daily Observations layout. Learn more.

Left ArrowRight Arrow

40.92945, -100.16068

Hourly Observations for November 25, 2015

Temp ( °F °C ) Dew Point ( °F °C ) Humidity (%) Winds ( mph kmh ) Pressure ( in mb ) Visibility ( mi km ) Precip ( " mm )
12:15 am 00:15 Clear 26 -3.2 25 -4 94 94 N N/A 29.88 1012 10 16 N/A
12:35 am 00:35 Clear 27 -2.8 26 -3.6 94 94 N N/A 29.88 1012 7 11 N/A
12:55 am 00:55 Clear 26 -3.5 24 -4.4 94 94 N N/A 29.88 1012 10 16 N/A
1:15 am 01:15 Clear 26 -3.2 24 -4.2 93 93 N N/A 29.88 1012 10 16 N/A
1:35 am 01:35 Clear 26 -3.1 25 -4 94 94 N N/A 29.85 1011 10 16 N/A
1:55 am 01:55 Clear 26 -3.2 25 -4.1 94 94 NNE 3 6 29.85 1011 7 11 N/A
2:15 am 02:15 Clear 26 -3.2 25 -4 94 94 N 5 7 29.88 1012 7 11 N/A
2:35 am 02:35 Clear with Mist and Fog 28 -2.3 26 -3.1 94 94 N 6 9 29.88 1012 5 8 N/A
2:55 am 02:55 Clear 27 -2.7 26 -3.5 94 94 WNW 3 6 29.88 1012 7 11 N/A
3:15 am 03:15 Clear 26 -3.6 24 -4.3 95 95 N N/A 29.88 1012 7 11 N/A
3:35 am 03:35 Clear 25 -4 24 -4.7 95 95 WNW 6 9 29.88 1012 10 16 N/A
3:55 am 03:55 Clear 25 -3.8 24 -4.5 95 95 W 5 7 29.88 1012 10 16 N/A
4:15 am 04:15 Clear 25 -3.7 24 -4.4 95 95 SW 5 7 29.88 1012 10 16 N/A
4:35 am 04:35 Clear 25 -4 24 -4.7 95 95 N N/A 29.88 1012 10 16 N/A
4:55 am 04:55 Clear 25 -4 23 -4.8 94 94 SSW 3 6 29.88 1012 10 16 N/A
5:15 am 05:15 Clear 25 -3.8 24 -4.6 94 94 N N/A 29.88 1012 10 16 N/A
5:35 am 05:35 Clear 24 -4.7 22 -5.5 94 94 N N/A 29.91 1013 10 16 N/A
5:55 am 05:55 Clear 25 -4 23 -4.8 94 94 N 3 6 29.88 1012 10 16 N/A
6:15 am 06:15 Clear 24 -4.6 22 -5.5 94 94 NNE 3 6 29.91 1013 10 16 N/A
6:35 am 06:35 Clear 24 -4.4 23 -5.1 95 95 N N/A 29.88 1012 10 16 N/A
6:55 am 06:55 Clear 24 -4.6 22 -5.5 94 94 N N/A 29.94 1014 10 16 N/A
7:15 am 07:15 Clear 24 -4.6 22 -5.4 94 94 ENE 5 7 29.97 1015 10 16 N/A
7:35 am 07:35 Clear with Mist and Fog 25 -3.8 24 -4.5 95 95 SE 5 7 29.97 1015 4 6 N/A
7:55 am 07:55 Mostly Cloudy 26 -3.3 25 -4 95 95 SSW 3 6 29.94 1014 7 11 N/A
8:15 am 08:15 Cloudy with Mist and Fog 28 -2.4 26 -3.1 95 95 N N/A 29.94 1014 2 3 N/A
8:35 am 08:35 Cloudy with Freezing Fog 30 -1 29 -1.6 96 96 N N/A 29.97 1015 5 8 N/A
8:55 am 08:55 Cloudy with Freezing Fog 31 -0.4 30 -1 96 96 NNW 3 6 29.97 1015 5 8 N/A
9:15 am 09:15 Cloudy with Fog 32 0.1 32 -0.2 98 98 N 8 13 29.97 1015 5 8 N/A
9:35 am 09:35 Cloudy with Fog 34 1.1 33 0.5 96 96 N 6 9 29.97 1015 5 8 N/A
9:55 am 09:55 Cloudy with Fog 37 2.7 36 2.1 96 96 N 5 7 29.94 1014 1 1 N/A
10:15 am 10:15 Partly Cloudy 39 4 38 3.4 96 96 NE 7 11 29.94 1014 10 16 N/A
10:35 am 10:35 Sunny 39 3.8 37 3 95 95 NE 12 19 29.94 1014 10 16 N/A
10:55 am 10:55 Mostly Cloudy 40 4.2 38 3.2 93 93 NNE 13 20 29.97 1015 10 16 N/A
11:15 am 11:15 Cloudy 40 4.5 36 2.2 85 85 NNE 12 19 29.97 1015 10 16 N/A
11:35 am 11:35 Cloudy 40 4.6 36 2 83 83 N 15 24 29.94 1014 10 16 N/A
11:55 am 11:55 Cloudy 41 5 36 2 81 81 N 16 26 29.94 1014 10 16 N/A
12:15 pm 12:15 Cloudy 42 5.6 36 2.1 78 78 N 16 26 29.88 1012 10 16 N/A
12:35 pm 12:35 Cloudy 43 6.1 36 2 75 75 N 15 24 29.91 1013 10 16 N/A
12:55 pm 12:55 Cloudy 43 6 35 1.5 73 73 N 14 22 29.91 1013 10 16 N/A
1:15 pm 13:15 Cloudy 43 6 35 1.5 73 73 N 15 24 29.91 1013 10 16 N/A
1:35 pm 13:35 Cloudy 43 5.9 34 1 71 71 N 18 30 29.91 1013 10 16 N/A
1:55 pm 13:55 Cloudy 43 6.1 34 1 70 70 NNE 15 24 29.91 1013 10 16 N/A
2:15 pm 14:15 Cloudy 43 6.2 34 1 70 70 N 15 24 29.91 1013 10 16 N/A
2:35 pm 14:35 Cloudy 44 6.4 33 0.6 67 67 N 18 30 29.91 1013 10 16 N/A
2:55 pm 14:55 Cloudy 44 6.5 33 0.5 66 66 N 18 30 29.91 1013 10 16 N/A
3:15 pm 15:15 Cloudy 44 6.5 32 0.1 64 64 NNE 15 24 29.94 1014 10 16 N/A
3:35 pm 15:35 Cloudy 44 6.5 33 0.4 65 65 NNE 12 19 29.94 1014 10 16 N/A
3:55 pm 15:55 Cloudy 44 6.5 32 undefined 64 64 NNE 18 30 29.94 1014 10 16 N/A
4:15 pm 16:15 Cloudy 43 6.2 32 undefined 65 65 N 16 26 30.00 1016 10 16 N/A
4:35 pm 16:35 Cloudy 43 6 32 undefined 66 66 NNE 15 24 30.03 1017 10 16 N/A
4:55 pm 16:55 Cloudy 41 5.2 32 undefined 69 69 N 16 26 30.03 1017 10 16 N/A
5:15 pm 17:15 Cloudy 40 4.5 32 -0.2 72 72 NNE 13 20 30.03 1017 10 16 N/A
5:35 pm 17:35 Cloudy 39 4 31 -0.5 73 73 N 16 26 30.06 1018 10 16 N/A
5:55 pm 17:55 Cloudy 38 3.5 31 -0.5 75 75 N 17 28 30.06 1018 10 16 N/A
6:15 pm 18:15 Cloudy 38 3.1 31 -0.5 77 77 N 17 28 30.09 1019 10 16 N/A
6:35 pm 18:35 Cloudy 37 2.7 31 -0.6 79 79 N 15 24 30.12 1020 10 16 N/A
6:55 pm 18:55 Cloudy 37 2.5 31 -0.5 81 81 NNE 13 20 30.12 1020 10 16 N/A
7:15 pm 19:15 Cloudy 36 2.2 31 -0.4 83 83 NNE 14 22 30.12 1020 10 16 N/A
7:35 pm 19:35 Cloudy 35 1.8 31 -0.3 86 86 NNE 14 22 30.12 1020 7 11 N/A
7:55 pm 19:55 Cloudy 35 1.7 32 -0.1 88 88 N 14 22 30.12 1020 7 11 N/A
8:15 pm 20:15 Cloudy 35 1.7 32 undefined 89 89 N 10 17 30.12 1020 7 11 N/A
8:35 pm 20:35 Cloudy 35 1.5 32 undefined 90 90 NNE 13 20 30.12 1020 7 11 N/A
8:55 pm 20:55 Cloudy with Mist and Fog 35 1.4 32 undefined 91 91 N 14 22 30.12 1020 5 8 N/A
9:15 pm 21:15 Cloudy with Mist and Fog 34 1 32 -0.1 92 92 N 15 24 30.12 1020 5 8 N/A
9:35 pm 21:35 Cloudy 34 1 32 -0.1 92 92 NNE 12 19 30.12 1020 7 11 N/A
9:55 pm 21:55 Cloudy 34 1 32 -0.1 92 92 NNE 13 20 30.18 1022 7 11 N/A
10:15 pm 22:15 Cloudy 34 1 32 undefined 93 93 NNE 12 19 30.18 1022 10 16 N/A
10:35 pm 22:35 Cloudy 34 1 32 undefined 93 93 NNE 12 19 30.18 1022 10 16 N/A
10:55 pm 22:55 Cloudy 34 1 32 -0.1 92 92 NNE 12 19 30.18 1022 10 16 N/A
11:15 pm 23:15 Cloudy 34 1 32 -0.1 92 92 NNE 14 22 30.18 1022 10 16 N/A
11:35 pm 23:35 Cloudy 34 1.1 32 -0.1 92 92 NNE 12 19 30.21 1023 10 16 N/A
11:55 pm 23:55 Cloudy 34 1.1 32 -0.2 91 91 NNE 14 22 30.18 1022 10 16 N/A

Powered by AerisWeather